Location: Rounton
(54.4000°N, 1.3500°W)
Time: 04:07:13
(UTC+00:00)

S-56A Canister/Altair - Pass Details

Date: 30 November 2021
Orbit: 633 x 2499 km, 38.9° (Epoch: 17 January)

Event Time Altitude Azimuth Distance (km) Brightness Sun altitude
Rises 01:20:49 0° 216° (SW) 4,392 - -53.4°
Reaches altitude 10° 01:25:54 10° 193° (SSW) 2,984 - -53.0°
Maximum altitude 01:28:59 13° 167° (SSE) 2,492 - -52.7°
Drops below altitude 10° 01:31:42 10° 139° (SE) 2,522 - -52.4°
Sets 01:35:16 0° 112° (ESE) 3,211 - -52.1°
